Flag for Iran Weather past 2 weeks in Bandar-Abbas, Iran

Now
84 °F

Clear.


Feels Like: 88 °F
Forecast: 75 / 89 °F
Wind: 7 mph from Southwest

Location: Bandarabbass

Current Time: Oct 24, 2014 at 7:08:17 PM

Latest Report: Oct 24, 2014 at 6:20 PM


Visibility: 10 mi

Pressure: 29.80 "Hg

Humidity: 62%

Dew point: 70 °F

Location of Bandar-AbbasLocation

Historic Weather in Bandar-Abbas — Graph

°F

Bandar-Abbas temperature yesterday

Maximum temperature yesterday: 91 °F (at 12:30 PM)
Minimum temperature yesterday: 75 °F (at 10:30 PM)
Average temperature yesterday: 84 °F

Past Weeks' High & Low Weather Summary

 TemperatureHumidityPressure
High102 °F (Oct 13, 1:30 PM)100% (Oct 20, 11:00 PM)31.26 "Hg (Oct 20, 11:00 PM)
Low70 °F (Oct 24, 6:30 AM)12% (Oct 14, 9:30 AM)29.71 "Hg (Oct 19, 3:00 PM)
Average86 °F64%29.86 "Hg
* Reported Oct 9 5:52 PM — Oct 24 6:00 PM, Bandar-Abbas, Weather by CustomWeather, © 2014

Note: Actual official high and low records may vary slightly from our data, if they occured in-between our weather recording intervals... More about our weather records

Advertising

Bandar-Abbas weather history for previous 24 hours

 ConditionsComfort  
Time TempWeatherWind HumidityBarometerVisibility
6:00 PM
Oct 24
86 °FClear.7 mph62%29.80 "Hg10 mi
5:20 PM86 °FSunny.7 mph59%29.80 "Hg10 mi
5:00 PM88 °FSunny.7 mph52%29.80 "Hg10 mi
4:20 PM90 °FSunny.9 mph46%29.80 "Hg10 mi
4:00 PM91 °FSunny.9 mph34%29.80 "Hg10 mi
3:30 PM91 °FSunny.12 mph38%29.80 "Hg10 mi
3:00 PM91 °FSunny.12 mph36%29.80 "Hg10 mi
2:30 PM93 °FSunny.9 mph34%29.80 "Hg10 mi
2:00 PM91 °FSunny.14 mph38%29.80 "Hg10 mi
1:30 PM91 °FSunny.14 mph36%29.83 "Hg10 mi
1:00 PM91 °FSunny.12 mph41%29.83 "Hg10 mi
12:30 PM91 °FSunny.12 mph46%29.83 "Hg10 mi
12:00 PM91 °FSunny.9 mph44%29.86 "Hg10 mi
11:30 AM90 °FSunny.12 mph49%29.86 "Hg10 mi
11:00 AM91 °FSunny.12 mph44%29.89 "Hg10 mi
10:30 AM93 °FSunny.5 mph36%29.89 "Hg10 mi
10:00 AM91 °FSunny.5 mph38%29.92 "Hg10 mi
9:30 AM90 °FSunny.5 mph43%29.92 "Hg10 mi
9:00 AM88 °FSunny.5 mph46%29.92 "Hg10 mi
8:30 AM86 °FSunny.5 mph52%29.89 "Hg10 mi
8:00 AM81 °FSunny.No wind66%29.89 "Hg10 mi
7:30 AM81 °FSunny.No wind66%29.89 "Hg10 mi
6:55 AM70 °FSunny.5 mph78%29.89 "Hg10 mi
6:30 AM70 °FSunny.5 mph78%29.89 "Hg10 mi
6:00 AM72 °FClear.5 mph78%29.86 "Hg5 mi
5:30 AM72 °FClear.5 mph78%29.86 "Hg5 mi
4:30 AM72 °FClear.5 mph78%29.86 "Hg5 mi
3:30 AM72 °FClear.5 mph78%29.86 "Hg5 mi
2:30 AM72 °FClear.5 mph73%29.89 "Hg10 mi
1:30 AM72 °FClear.2 mph73%29.89 "Hg10 mi
12:30 AM75 °FPassing clouds.N/A69%29.89 "HgN/A
11:30 PM
Oct 23
75 °FClear.5 mph69%29.89 "Hg10 mi
11:00 PM75 °FClear.5 mph69%29.89 "Hg10 mi
10:30 PM75 °FClear.5 mph69%29.89 "Hg10 mi
10:00 PM81 °FClear.7 mph66%29.89 "Hg10 mi
9:30 PM81 °FClear.7 mph66%29.89 "Hg10 mi
9:00 PM82 °FClear.5 mph62%29.89 "Hg10 mi
8:30 PM81 °FClear.5 mph66%29.89 "Hg10 mi
8:00 PM81 °FClear.5 mph66%29.89 "Hg10 mi
7:30 PM82 °FClear.5 mph62%29.89 "Hg10 mi
7:00 PM82 °FClear.9 mph62%29.89 "Hg10 mi
Weather by CustomWeather, © 2014

See weather overviewHow to use our weather pages